Weather in Nar

Russia / Republic of North Ossetia — Alania     42°40′47″N   44°01′17″E
temp.,
°C
wind,
m/s
gust,
m/s
humid.,
%
clouds,
%
prec.,
mm/h
press.,
hPa
HPBL,
m
27 february, sat
sat2700:00−11ssw119129 0.0 102622
03:00−11ssw338015 0.0 102538
06:00−11ssw23840 0.0 102436
09:00−6ssw33820 0.0 1022148
12:00−3ssw34820 0.0 1019410
15:00−4sw338616 0.0 1017397
18:00−10sw339258 0.0 101943
21:00−12sw228449 0.0 101929
28 february, sun
sun2800:00−13ssw338725 0.0 101846
03:00−13ssw449115 0.0 101864
06:00−12ssw449325 0.0 101866
09:00−8ssw568937 0.1 1016288
12:00−5ssw578858 0.2 1015684
15:00−5sw568670 0.6 1015725
18:00−9sw449352 0.6 101778
21:00−10ssw339471 1.1 101859
1 march, mon
mon100:00−9s339586 1.9 1019110
03:00−9ssw349693 4.9 1020180
06:00−13sw339695 0.8 102238
09:00−10ssw348982 1.1 1023482
12:00−8sw348086 0.5 1024826
15:00−9wsw128076 0.9 1024723
18:00−15wsw129888 0.3 102620
21:00−17sw229481 0.3 102830
2 march, tue
tue200:00−17sw239098 0.0 102936
03:00−17sw339299 0.0 102943
06:00−19sw228744 0.0 103030
09:00−12ssw237522 0.0 1029174
12:00−10ssw44780 0.0 1027632
15:00−10sw458124 0.1 1025715
18:00−15sw459258 0.1 1026102
21:00−16ssw569152 0.2 1027138
3 march, wed
wed300:00−16sw569150 0.1 1026149
03:00−16sw569271 0.1 1025136
06:00−17sw679285 0.0 1024130
09:00−13sw568885 0.1 1022258
12:00−10sw568290 0.1 1020615
15:00−10wsw448084 0.3 1019742
18:00−14sw339590 0.6 102136
21:00−17w129481 0.8 102323